[[{"header":{"parameterUnit":"m.s-1","parameterCategory":1,"la1":30.2992,"la2":30.254,"lo1":-89.0895,"lo2":-89.0443,"dy":0.0025,"dx":0.0025,"nx":19,"ny":19,"refTime":"2026-05-20T09:00:00:Z","depth":0,"parameterNumber":2,"parameterNumberName":"U-component_of_WINDS"},"data":[0,0,0,-0.8437,-0.8438,-0.8468,-0.8468,-0.8511,-0.8511,0,0,0,0,0,0,0,0,0,0,0,-0.843,-0.8431,-0.8437,-0.8438,-0.8468,-0.8468,-0.8511,-0.8511,0,0,0,0,0,0,0,0,0,0,0,-0.843,-0.8431,-0.8431,-0.8438,-0.8468,-0.8468,-0.8511,-0.8486,0,0,0,0,0,0,0,0,0,0,-0.8457,-0.8452,-0.843,-0.8431,-0.8438,-0.8468,-0.8468,-0.8485,-0.8488,-0.8499,0,-0.8509,0,-0.8511,-0.8514,-0.8515,0,0,0,-0.8436,-0.845,-0.8456,-0.8431,-0.8438,-0.8468,-0.8454,-0.8487,-0.849,-0.8503,-0.851,-0.8511,-0.8512,-0.8515,-0.8515,-0.8583,-0.8584,0,0,-0.8434,-0.8437,-0.8454,-0.8458,-0.8453,-0.8453,-0.8455,-0.8489,-0.8496,-0.851,-0.8512,-0.8512,-0.8515,-0.8515,-0.8583,-0.8584,0,0,0,-0.8431,-0.8436,-0.8441,-0.8457,-0.8462,-0.8454,-0.8456,-0.8495,-0.8496,-0.8512,-0.8513,-0.8515,-0.8516,-0.8583,-0.8583,-0.8605,0,0,0,-0.843,-0.8434,-0.844,-0.8442,-0.8461,-0.8478,-0.8461,-0.8494,-0.8498,-0.8513,-0.8515,-0.8516,-0.8582,-0.8583,-0.8604,-0.8615,0,0,0,-0.8428,-0.8433,-0.8438,-0.8442,-0.8455,-0.8478,-0.8481,-0.8495,-0.8498,-0.8515,-0.8516,-0.8582,-0.8583,-0.8602,-0.8613,-0.8634,0,0,0,-0.8426,-0.8457,-0.8439,-0.8474,-0.8455,-0.8491,-0.8481,-0.8508,-0.8525,-0.8515,-0.8582,-0.8583,-0.8602,-0.8611,-0.8633,-0.8653,-0.8661,0,0,-0.8467,-0.8462,-0.8483,-0.8467,-0.8507,-0.8486,-0.853,-0.8543,-0.8542,-0.857,-0.8572,-0.8604,-0.8613,-0.8634,-0.8708,-0.8714,0,0,0,-0.8496,-0.8511,-0.8521,-0.8537,-0.8548,-0.8559,-0.8565,-0.857,-0.8594,-0.8557,-0.8617,-0.8622,-0.8635,-0.8644,-0.865,-0.8661,-0.8588,-0.8587,-0.8587,-0.8557,-0.8555,-0.8589,-0.8591,-0.8607,-0.8614,-0.8627,-0.8635,-0.8627,-0.8642,-0.865,-0.8695,-0.8706,-0.8711,-0.8722,-0.866,-0.866,-0.8661,-0.8661,-0.8617,-0.8638,-0.8628,-0.8658,-0.8656,-0.8681,-0.8689,-0.8684,-0.8707,-0.8689,-0.8699,-0.8679,-0.8718,-0.8728,-0.8662,-0.8662,-0.8662,-0.8662,-0.8661,-0.8657,-0.8667,-0.8672,-0.8696,-0.8715,-0.8716,-0.8739,-0.8736,-0.8734,-0.8745,-0.8753,-0.8753,-0.8753,-0.8749,-0.8749,-0.8749,-0.8749,-0.8749,-0.875,-0.8696,-0.8702,-0.8721,-0.8736,-0.8747,-0.8761,-0.8768,-0.8779,-0.879,-0.8786,-0.8786,-0.8778,-0.8722,-0.8708,-0.8752,-0.8752,-0.8751,-0.8751,-0.8751,-0.8758,-0.8744,-0.8774,-0.8785,-0.8802,-0.8822,-0.8818,-0.884,-0.8848,-0.886,-0.885,-0.8809,-0.8804,-0.88,-0.8788,-0.885,-0.885,-0.885,-0.885,-0.8792,-0.8789,-0.882,-0.8837,-0.8854,-0.8854,-0.8889,-0.8896,-0.8901,-0.8906,-0.8897,-0.8882,-0.8877,-0.8875,-0.8869,-0.8858,-0.8936,-0.8936,-0.8936,-0.883,-0.8829,-0.8859,-0.8863,-0.8877,-0.889,-0.8923,-0.8944,-0.8947,-0.894,-0.8911,-0.8907,-0.8882,-0.8874,-0.8866,-0.8856,-0.8837,0,0]},{"header":{"parameterUnit":"m.s-1","parameterCategory":1,"la1":30.2992,"la2":30.254,"lo1":-89.0895,"lo2":-89.0443,"dy":0.0025,"dx":0.0025,"nx":19,"ny":19,"refTime":"2026-05-20T09:00:00:Z","depth":0,"parameterNumber":3,"parameterNumberName":"V-component_of_WINDS"},"data":[0,0,0,2.3334,2.3334,2.3363,2.3363,2.3404,2.3404,0,0,0,0,0,0,0,0,0,0,0,2.3328,2.3329,2.3334,2.3334,2.3363,2.3363,2.3404,2.3404,0,0,0,0,0,0,0,0,0,0,0,2.3328,2.3329,2.3329,2.3335,2.3363,2.3363,2.3404,2.338,0,0,0,0,0,0,0,0,0,0,2.3352,2.335,2.3329,2.3329,2.3335,2.3363,2.3363,2.3379,2.3382,2.3393,0,2.3404,0,2.3405,2.3407,2.3408,0,0,0,2.3332,2.3348,2.3353,2.3329,2.3335,2.3363,2.3349,2.3381,2.3384,2.3397,2.3405,2.3406,2.3406,2.3408,2.3408,2.3483,2.3484,0,0,2.333,2.3335,2.3351,2.3355,2.3352,2.3348,2.335,2.3382,2.3392,2.3405,2.3407,2.3406,2.3408,2.3408,2.3483,2.3483,0,0,0,2.3327,2.3334,2.3338,2.3354,2.3359,2.3349,2.3351,2.339,2.3391,2.3408,2.3407,2.3408,2.3409,2.3482,2.3483,2.3512,0,0,0,2.3326,2.3333,2.3338,2.3341,2.3358,2.3375,2.3358,2.3389,2.3392,2.3407,2.3408,2.3409,2.3482,2.3482,2.351,2.3525,0,0,0,2.3325,2.3332,2.3338,2.3341,2.3354,2.3374,2.3377,2.3389,2.3392,2.3408,2.3409,2.3481,2.3482,2.3508,2.3522,2.3547,0,0,0,2.3326,2.3362,2.3338,2.3379,2.3353,2.3392,2.3377,2.3405,2.3422,2.3409,2.3482,2.3483,2.3508,2.352,2.3545,2.3569,2.3579,0,0,2.3375,2.3369,2.3392,2.3371,2.3416,2.3387,2.3436,2.3446,2.3442,2.3469,2.3471,2.3511,2.3522,2.3546,2.3634,2.3643,0,0,0,2.3409,2.3427,2.3437,2.3454,2.3463,2.3472,2.3474,2.3478,2.3501,2.3458,2.3526,2.3532,2.3546,2.3558,2.3565,2.3577,2.3488,2.3488,2.3488,2.3486,2.348,2.3519,2.3517,2.3533,2.3536,2.3548,2.3554,2.3542,2.3559,2.3567,2.3621,2.3634,2.364,2.3652,2.3579,2.3579,2.3579,2.3579,2.3558,2.3581,2.3566,2.3599,2.3592,2.3619,2.3623,2.3614,2.3638,2.3614,2.3626,2.3602,2.3649,2.366,2.3581,2.3581,2.358,2.358,2.358,2.3608,2.3618,2.3623,2.3647,2.3666,2.3662,2.3686,2.3679,2.3672,2.3684,2.3692,2.3692,2.3691,2.3689,2.3689,2.3689,2.3689,2.3689,2.3689,2.3658,2.3662,2.3684,2.3697,2.3708,2.372,2.3723,2.3732,2.3741,2.3734,2.3734,2.3722,2.3655,2.3638,2.3692,2.3692,2.3691,2.3691,2.3691,2.3734,2.3716,2.3749,2.376,2.3775,2.3795,2.3785,2.3806,2.3812,2.3824,2.3809,2.3761,2.3754,2.3748,2.3734,2.381,2.381,2.381,2.381,2.3777,2.3773,2.3805,2.3822,2.3838,2.3833,2.3871,2.3874,2.3874,2.3878,2.3865,2.3847,2.3841,2.3837,2.383,2.3817,2.3912,2.3912,2.3912,2.3823,2.3821,2.3854,2.3855,2.3866,2.3876,2.3912,2.3932,2.3927,2.3916,2.388,2.3876,2.3846,2.3836,2.3824,2.3813,2.3789,0,0]}]]